Weather History for Pellston, MI

Change the Weather History Date:

Monday, December 12, 2011

  Actual Average Record
Temperature  
Mean Temperature 40 °F -  
Max Temperature 43 °F 32 °F 55 °F (1949)
Min Temperature 37 °F 17 °F -17 °F (1958)
Degree Days  
Heating Degree Days 25    
Moisture  
Dew Point 36 °F    
Average Humidity 86    
Maximum Humidity 100    
Minimum Humidity 74    
Precipitation  
Precipitation 0.07 in - - ()
Sea Level Pressure  
Sea Level Pressure 30.29 in    
Wind  
Wind Speed 9 mph (SW)    
Max Wind Speed 13 mph    
Max Gust Speed 24 mph    
Visibility 8 miles    
Events Rain    
Averages and records for this station are not official NWS values.
T = Trace of Precipitation, MM = Missing Value Source: NWS Daily Summary

Daily Weather History Graph

Daily Weather History Graph

Search for Another Location

Airport:

Trip Planner

Search our weather history database for the weather conditions in past years. The results will help you decide how hot, cold, wet, or windy it might be!

Date:

Astronomy

Dec. 12, 2011 Rise Set
Actual Time 8:10 AM EST 4:55 PM EST
Civil Twilight 7:35 AM EST 5:29 PM EST
Nautical Twilight 6:58 AM EST 6:07 PM EST
Astronomical Twilight 6:22 AM EST 6:43 PM EST
Moon 7:08 PM EST (12/12) 9:39 AM EST (12/12)
Length of Visible Light 9h 53m
Length of Day
8h 45m
Waning Gibbous, 96% of the Moon is Illuminated
Dec 12
Waning Gibbous
Dec 17
Last Quarter
Dec 24
New
Jan 1
First Quarter
Jan 9
Full

Hourly Weather History & Observations

Time (EST) Temp. Windchill Dew Point Humidity Pressure Visibility Wind Dir Wind Speed Gust Speed Precip Events Conditions
12:54 AM 37.9 °F 30.9 °F 32.0 °F 79% 30.23 in 10.0 mi SW 10.4 mph 20.7 mph N/A   Clear
1:31 AM 39.2 °F 31.6 °F 33.8 °F 81% 30.22 in 10.0 mi SW 12.7 mph 19.6 mph N/A   Mostly Cloudy
1:54 AM 39.0 °F 32.3 °F 34.0 °F 82% 30.25 in 10.0 mi SW 10.4 mph 20.7 mph N/A   Overcast
2:54 AM 39.9 °F 34.5 °F 35.1 °F 83% 30.27 in 10.0 mi WSW 8.1 mph 24.2 mph N/A   Overcast
3:54 AM 39.9 °F 32.9 °F 34.0 °F 79% 30.28 in 10.0 mi West 11.5 mph - N/A   Overcast
4:54 AM 39.9 °F 32.5 °F 34.0 °F 79% 30.28 in 9.0 mi West 12.7 mph 18.4 mph N/A   Overcast
5:54 AM 39.9 °F 34.5 °F 35.1 °F 83% 30.29 in 8.0 mi WSW 8.1 mph - N/A   Overcast
6:01 AM 39.2 °F 32.0 °F 35.6 °F 87% 30.27 in 8.0 mi WSW 11.5 mph - N/A   Overcast
6:54 AM 39.9 °F 33.9 °F 35.1 °F 83% 30.30 in 7.0 mi WSW 9.2 mph - N/A   Overcast
7:54 AM 39.0 °F 32.8 °F 36.0 °F 89% 30.30 in 7.0 mi SW 9.2 mph - N/A   Overcast
8:54 AM 39.0 °F 33.4 °F 36.0 °F 89% 30.31 in 6.0 mi SW 8.1 mph - 0.00 in   Overcast
9:54 AM 39.9 °F 33.9 °F 35.1 °F 83% 30.32 in 6.0 mi SW 9.2 mph - 0.00 in   Haze
10:13 AM 39.2 °F 33.0 °F 35.6 °F 87% 30.30 in 6.0 mi SW 9.2 mph - N/A   Haze
10:54 AM 39.9 °F 33.9 °F 36.0 °F 86% 30.32 in 6.0 mi SW 9.2 mph - N/A   Overcast
11:54 AM 41.0 °F 35.8 °F 36.0 °F 82% 30.32 in 7.0 mi SSW 8.1 mph - 0.00 in   Overcast
12:40 PM 42.8 °F 38.6 °F 35.6 °F 76% 30.28 in 8.0 mi SSW 6.9 mph - N/A   Overcast
12:54 PM 42.1 °F 35.7 °F 35.1 °F 76% 30.30 in 8.0 mi SSW 11.5 mph - N/A   Overcast
1:02 PM 42.8 °F 37.5 °F 35.6 °F 76% 30.28 in 8.0 mi SSW 9.2 mph - N/A   Overcast
2:06 PM 42.8 °F 38.0 °F 35.6 °F 76% 30.27 in 10.0 mi SSW 8.1 mph - N/A   Overcast
2:54 PM 42.8 °F 38.0 °F 35.6 °F 76% 30.26 in 10.0 mi SW 8.1 mph - N/A   Overcast
3:54 PM 43.0 °F 39.5 °F 35.1 °F 74% 30.29 in 10.0 mi WSW 5.8 mph - 0.00 in Rain Light Rain
4:54 PM 41.0 °F 38.0 °F 36.0 °F 82% 30.30 in 10.0 mi SW 4.6 mph - 0.00 in   Overcast
5:33 PM 41.0 °F 35.2 °F 37.4 °F 87% 30.28 in 10.0 mi SW 9.2 mph - 0.00 in Rain Light Rain
5:54 PM 41.0 °F 34.3 °F 37.4 °F 87% 30.28 in 9.0 mi SW 11.5 mph 20.7 mph N/A Rain Light Rain
6:54 PM 41.0 °F 34.7 °F 37.0 °F 86% 30.30 in 8.0 mi SW 10.4 mph 21.9 mph 0.02 in Rain Light Rain
7:54 PM 41.0 °F 35.2 °F 37.0 °F 86% 30.31 in 10.0 mi WSW 9.2 mph - 0.02 in Rain Light Rain
8:54 PM 39.9 °F 35.1 °F 37.9 °F 93% 30.32 in 9.0 mi WSW 6.9 mph - 0.01 in Rain Light Rain
9:06 PM 39.2 °F 35.0 °F 37.4 °F 93% 30.30 in 9.0 mi WSW 5.8 mph - 0.00 in Rain Light Rain
9:43 PM 39.2 °F 33.6 °F 39.2 °F 100% 30.30 in 7.0 mi West 8.1 mph - 0.01 in Rain Light Rain
9:50 PM 39.2 °F 35.0 °F 39.2 °F 100% 30.30 in 7.0 mi WSW 5.8 mph - 0.01 in Rain Light Rain
9:54 PM 41.0 °F 36.4 °F 39.0 °F 93% 30.32 in 7.0 mi WSW 6.9 mph - 0.01 in Rain Light Rain
10:04 PM 39.2 °F 33.6 °F 39.2 °F 100% 30.30 in 10.0 mi WSW 8.1 mph - 0.00 in Rain Light Rain
10:28 PM 39.2 °F 35.9 °F 39.2 °F 100% 30.30 in 9.0 mi West 4.6 mph - 0.00 in Rain Light Rain
10:54 PM 39.9 °F 32.9 °F 39.0 °F 97% 30.34 in 8.0 mi West 11.5 mph 16.1 mph 0.01 in Rain Light Rain
11:54 PM 39.0 °F 35.7 °F 37.9 °F 96% 30.34 in 8.0 mi West 4.6 mph - 0.00 in   Overcast